2021-022AB

Last updated on Thu Apr 22 2021 00:02:03 GMT+0000 (Coordinated Universal Time)

1 47957U 21022AB 21110.96771039 .00000987 00000-0 72497-4 0 9993 2 47957 97.5595 14.2584 0022152 144.1505 271.6137 15.05552488 4194
UTC large
Height (km)
Speed (km/s)
/
Latitude / Longitude
Inclination (degrees)
Orbital Period (minutes)
Azimuth
Elevation
Range (km)
Doppler Factor

Next 0 passes for location: London (51.5072 / 0.1276)

Sorry there are no passes over London.